| time (UTC) | temp F | wind direction | speed MPH | gust MPH | rain 1hr in | rain 24hr in | rain mn in | humidity % | barometer mb |
| 20260503025336 | 62 | 149 | 0.0 | 2.0 | 0.00 | 0.37 | 0.28 | 60 | 1018.9 |
| 20260503024838 | 63 | 149 | 0.0 | 3.0 | 0.00 | 0.37 | 0.28 | 60 | 1018.9 |
| 20260503024337 | 63 | 148 | 0.0 | 3.0 | 0.00 | 0.37 | 0.28 | 60 | 1018.7 |
| 20260503023836 | 63 | 160 | 0.0 | 3.0 | 0.00 | 0.37 | 0.28 | 60 | 1018.7 |
| 20260503023338 | 63 | 149 | 0.0 | 3.0 | 0.00 | 0.37 | 0.28 | 60 | 1018.6 |
| 20260503022836 | 63 | 151 | 0.0 | 2.0 | 0.00 | 0.37 | 0.28 | 60 | 1018.6 |
| 20260503022336 | 64 | 149 | 0.0 | 2.0 | 0.00 | 0.37 | 0.28 | 59 | 1018.5 |
| 20260503021838 | 64 | 142 | 0.0 | 2.0 | 0.00 | 0.37 | 0.28 | 59 | 1018.4 |
| 20260503021337 | 64 | 154 | 0.0 | 3.0 | 0.00 | 0.37 | 0.28 | 60 | 1018.4 |
| 20260503020838 | 64 | 149 | 0.0 | 3.0 | 0.00 | 0.37 | 0.28 | 61 | 1018.3 |
| 20260503020338 | 64 | 161 | 0.0 | 3.0 | 0.00 | 0.37 | 0.28 | 59 | 1018.3 |
| 20260503015831 | 64 | 154 | 0.0 | 2.0 | 0.00 | 0.37 | 0.28 | 59 | 1018.2 |
| 20260503015537 | 65 | 145 | 0.0 | 2.0 | 0.00 | 0.37 | 0.28 | 58 | 1018.0 |
| 20260503015421 | 65 | 154 | 0.0 | 2.0 | 0.00 | 0.37 | 0.28 | 59 | 1018.1 |
| 20260503014314 | 65 | 147 | 0.0 | 2.0 | 0.00 | 0.37 | 0.28 | 57 | 1018.1 |
| 20260503013809 | 65 | 144 | 0.0 | 2.0 | 0.00 | 0.37 | 0.28 | 57 | 1018.0 |
| 20260503013302 | 65 | 137 | 0.0 | 3.0 | 0.00 | 0.37 | 0.28 | 56 | 1018.0 |
| 20260503012755 | 66 | 159 | 0.0 | 3.0 | 0.00 | 0.37 | 0.28 | 56 | 1017.9 |
| 20260503012250 | 66 | 135 | 0.0 | 2.0 | 0.00 | 0.37 | 0.28 | 56 | 1017.6 |
| 20260503011744 | 66 | 147 | 0.0 | 2.0 | 0.00 | 0.37 | 0.28 | 56 | 1017.5 |
| 20260503011238 | 67 | 141 | 1.0 | 3.0 | 0.00 | 0.37 | 0.28 | 55 | 1017.5 |
| 20260503010732 | 67 | 135 | 1.0 | 5.0 | 0.00 | 0.37 | 0.28 | 55 | 1017.6 |
| 20260503010226 | 67 | 132 | 1.0 | 5.0 | 0.00 | 0.37 | 0.28 | 55 | 1017.4 |
| 20260503005945 | 67 | 151 | 1.0 | 3.0 | 0.00 | 0.37 | 0.28 | 56 | 1017.3 |
| 20260503005439 | 67 | 137 | 0.0 | 4.0 | 0.00 | 0.37 | 0.28 | 56 | 1017.3 |
| 20260503004708 | 67 | 141 | 0.0 | 1.0 | 0.00 | 0.37 | 0.28 | 55 | 1017.2 |
| 20260503004202 | 68 | 149 | 0.0 | 2.0 | 0.00 | 0.37 | 0.28 | 54 | 1017.1 |
| 20260503003656 | 68 | 149 | 0.0 | 2.0 | 0.00 | 0.38 | 0.28 | 53 | 1017.0 |
| 20260503003150 | 69 | 149 | 0.0 | 3.0 | 0.00 | 0.39 | 0.28 | 52 | 1016.9 |
| 20260503002645 | 69 | 138 | 1.0 | 3.0 | 0.00 | 0.40 | 0.28 | 51 | 1016.9 |
| 20260503002402 | 70 | 145 | 1.0 | 3.0 | 0.00 | 0.40 | 0.28 | 50 | 1016.9 |
| 20260503001632 | 70 | 149 | 0.0 | 3.0 | 0.00 | 0.40 | 0.28 | 52 | 1016.9 |
| 20260503001126 | 71 | 144 | 1.0 | 5.0 | 0.00 | 0.40 | 0.28 | 50 | 1016.7 |
| 20260503000619 | 71 | 144 | 1.0 | 5.0 | 0.00 | 0.41 | 0.28 | 48 | 1016.6 |
| 20260503000114 | 71 | 154 | 2.0 | 10.0 | 0.00 | 0.41 | 0.28 | 48 | 1016.4 |
| 20260502235608 | 71 | 135 | 2.0 | 10.0 | 0.00 | 0.41 | 0.28 | 46 | 1016.3 |
| 20260502235102 | 71 | 156 | 1.0 | 5.0 | 0.00 | 0.41 | 0.28 | 47 | 1016.4 |
| 20260502234813 | 72 | 139 | 1.0 | 5.0 | 0.00 | 0.43 | 0.28 | 48 | 1016.3 |
| 20260502234050 | 72 | 147 | 1.0 | 5.0 | 0.00 | 0.46 | 0.28 | 48 | 1016.2 |
| 20260502233544 | 72 | 142 | 1.0 | 5.0 | 0.00 | 0.49 | 0.28 | 49 | 1016.1 |
| 20260502233038 | 72 | 144 | 1.0 | 5.0 | 0.00 | 0.52 | 0.28 | 47 | 1016.0 |
| 20260502232532 | 73 | 146 | 1.0 | 6.0 | 0.00 | 0.55 | 0.28 | 47 | 1016.0 |
| 20260502232026 | 73 | 132 | 2.0 | 6.0 | 0.00 | 0.56 | 0.28 | 47 | 1016.0 |
| 20260502231746 | 73 | 122 | 2.0 | 9.0 | 0.00 | 0.56 | 0.28 | 45 | 1015.9 |
| 20260502231451 | 74 | 149 | 2.0 | 9.0 | 0.00 | 0.56 | 0.28 | 45 | 1015.8 |
| 20260502230508 | 74 | 130 | 1.0 | 5.0 | 0.00 | 0.56 | 0.28 | 45 | 1015.8 |
| 20260502230002 | 74 | 138 | 2.0 | 7.0 | 0.00 | 0.57 | 0.28 | 46 | 1015.7 |
| 20260502225456 | 74 | 137 | 2.0 | 7.0 | 0.00 | 0.57 | 0.28 | 45 | 1015.7 |
| 20260502224951 | 75 | 146 | 2.0 | 7.0 | 0.00 | 0.57 | 0.28 | 44 | 1015.7 |
| 20260502224703 | 75 | 133 | 2.0 | 9.0 | 0.00 | 0.57 | 0.28 | 45 | 1015.6 |
| 20260502223938 | 75 | 142 | 2.0 | 9.0 | 0.00 | 0.57 | 0.28 | 45 | 1015.7 |
| 20260502223432 | 75 | 136 | 2.0 | 7.0 | 0.00 | 0.58 | 0.28 | 43 | 1015.5 |
| 20260502222926 | 75 | 156 | 2.0 | 6.0 | 0.00 | 0.59 | 0.28 | 43 | 1015.5 |
| 20260502222420 | 75 | 135 | 2.0 | 6.0 | 0.00 | 0.60 | 0.28 | 42 | 1015.6 |
| 20260502221914 | 76 | 172 | 2.0 | 8.0 | 0.00 | 0.60 | 0.28 | 43 | 1015.5 |
| 20260502221637 | 76 | 151 | 2.0 | 8.0 | 0.00 | 0.61 | 0.28 | 44 | 1015.5 |
| 20260502220902 | 76 | 127 | 2.0 | 5.0 | 0.00 | 0.62 | 0.28 | 42 | 1015.4 |
| 20260502220356 | 76 | 139 | 2.0 | 5.0 | 0.00 | 0.62 | 0.28 | 43 | 1015.5 |
| 20260502215850 | 76 | 142 | 2.0 | 8.0 | 0.00 | 0.62 | 0.28 | 43 | 1015.4 |
| 20260502215344 | 76 | 130 | 2.0 | 8.0 | 0.00 | 0.62 | 0.28 | 43 | 1015.4 |
| 20260502214839 | 76 | 137 | 2.0 | 7.0 | 0.00 | 0.62 | 0.28 | 43 | 1015.4 |
| 20260502214332 | 76 | 148 | 2.0 | 7.0 | 0.00 | 0.62 | 0.28 | 43 | 1015.3 |
| 20260502213826 | 76 | 151 | 1.0 | 7.0 | 0.00 | 0.63 | 0.28 | 46 | 1015.4 |
| 20260502213320 | 76 | 133 | 1.0 | 6.0 | 0.00 | 0.64 | 0.28 | 47 | 1015.4 |
| 20260502212814 | 76 | 147 | 2.0 | 6.0 | 0.00 | 0.66 | 0.28 | 46 | 1015.3 |
| 20260502212308 | 76 | 140 | 2.0 | 5.0 | 0.00 | 0.69 | 0.28 | 44 | 1015.4 |
| 20260502211815 | 76 | 174 | 2.0 | 6.0 | 0.00 | 0.78 | 0.28 | 48 | 1015.5 |
| 20260502211256 | 76 | 149 | 2.0 | 8.0 | 0.00 | 0.89 | 0.28 | 46 | 1015.4 |
| 20260502210750 | 76 | 154 | 2.0 | 9.0 | 0.00 | 0.94 | 0.28 | 46 | 1015.5 |
| 20260502210244 | 76 | 146 | 2.0 | 9.0 | 0.00 | 0.97 | 0.28 | 46 | 1015.5 |
| 20260502205738 | 76 | 144 | 2.0 | 8.0 | 0.00 | 1.00 | 0.28 | 44 | 1015.6 |
| 20260502205232 | 76 | 113 | 2.0 | 5.0 | 0.00 | 1.02 | 0.28 | 46 | 1015.6 |
| 20260502204726 | 76 | 160 | 2.0 | 10.0 | 0.00 | 1.04 | 0.28 | 48 | 1015.5 |
| 20260502204706 | 76 | 89 | 2.0 | 10.0 | 0.00 | 1.06 | 0.28 | 47 | 1015.6 |
| 20260502203716 | 76 | 144 | 2.0 | 5.0 | 0.00 | 1.07 | 0.28 | 48 | 1015.6 |
| 20260502203216 | 76 | 138 | 2.0 | 6.0 | 0.00 | 1.09 | 0.28 | 46 | 1015.8 |
| 20260502203202 | 76 | 147 | 2.0 | 6.0 | 0.00 | 1.12 | 0.28 | 48 | 1015.7 |
| 20260502202215 | 76 | 134 | 2.0 | 7.0 | 0.00 | 1.17 | 0.28 | 48 | 1015.8 |
| 20260502201715 | 75 | 132 | 3.0 | 12.0 | 0.00 | 1.22 | 0.28 | 47 | 1015.9 |
| 20260502201212 | 75 | 152 | 3.0 | 12.0 | 0.00 | 1.26 | 0.28 | 45 | 1015.9 |
| 20260502200929 | 76 | 130 | 2.0 | 8.0 | 0.00 | 1.31 | 0.28 | 48 | 1016.1 |
| 20260502200210 | 75 | 142 | 2.0 | 8.0 | 0.00 | 1.35 | 0.28 | 52 | 1016.1 |
| 20260502195710 | 75 | 158 | 2.0 | 8.0 | 0.00 | 1.38 | 0.28 | 49 | 1016.0 |
| 20260502195209 | 75 | 135 | 2.0 | 7.0 | 0.00 | 1.41 | 0.28 | 49 | 1016.1 |
| 20260502194710 | 75 | 43 | 2.0 | 7.0 | 0.00 | 1.46 | 0.28 | 48 | 1016.1 |
| 20260502194211 | 75 | 151 | 2.0 | 7.0 | 0.00 | 1.54 | 0.28 | 48 | 1016.2 |
| 20260502193705 | 75 | 133 | 2.0 | 9.0 | 0.00 | 1.55 | 0.28 | 51 | 1016.3 |
| 20260502193207 | 75 | 134 | 2.0 | 9.0 | 0.00 | 1.58 | 0.28 | 51 | 1016.2 |
| 20260502192933 | 75 | 142 | 2.0 | 7.0 | 0.00 | 1.61 | 0.28 | 53 | 1016.2 |
| 20260502192207 | 75 | 130 | 2.0 | 8.0 | 0.00 | 1.68 | 0.28 | 54 | 1016.3 |
| 20260502191705 | 75 | 154 | 2.0 | 8.0 | 0.00 | 1.77 | 0.28 | 55 | 1016.2 |
| 20260502191208 | 75 | 129 | 2.0 | 9.0 | 0.00 | 1.83 | 0.28 | 54 | 1016.1 |
| 20260502190703 | 74 | 135 | 2.0 | 9.0 | 0.00 | 1.87 | 0.28 | 56 | 1016.2 |
| 20260502190203 | 74 | 176 | 2.0 | 8.0 | 0.00 | 1.92 | 0.28 | 54 | 1016.0 |
| 20260502185702 | 74 | 106 | 3.0 | 8.0 | 0.00 | 1.95 | 0.28 | 52 | 1016.1 |
| 20260502185203 | 74 | 117 | 2.0 | 6.0 | 0.00 | 2.01 | 0.28 | 52 | 1016.0 |
| 20260502184700 | 75 | 135 | 2.0 | 6.0 | 0.00 | 2.08 | 0.28 | 56 | 1016.1 |
| 20260502184158 | 75 | 134 | 2.0 | 6.0 | 0.00 | 2.25 | 0.28 | 59 | 1016.2 |
| 20260502183659 | 75 | 134 | 2.0 | 6.0 | 0.00 | 2.36 | 0.28 | 57 | 1016.1 |
| 20260502183158 | 75 | 171 | 2.0 | 5.0 | 0.00 | 2.47 | 0.28 | 61 | 1016.2 |
| 20260502182915 | 75 | 103 | 2.0 | 5.0 | 0.00 | 2.54 | 0.28 | 61 | 1016.0 |
| 20260502182643 | 74 | 112 | 2.0 | 5.0 | 0.00 | 2.59 | 0.28 | 61 | 1016.1 |
| 20260502181655 | 74 | 45 | 2.0 | 6.0 | 0.00 | 2.65 | 0.28 | 63 | 1016.2 |
| 20260502181155 | 74 | 132 | 2.0 | 6.0 | 0.00 | 2.70 | 0.28 | 63 | 1016.3 |
| 20260502180657 | 74 | 149 | 2.0 | 6.0 | 0.00 | 2.73 | 0.28 | 62 | 1016.3 |
| 20260502180152 | 73 | 134 | 2.0 | 5.0 | 0.00 | 2.78 | 0.28 | 65 | 1016.3 |
| 20260502180140 | 73 | 118 | 2.0 | 8.0 | 0.00 | 2.81 | 0.28 | 65 | 1016.3 |
| 20260502170415 | 73 | 139 | 2.0 | 7.0 | 0.00 | 2.84 | 0.28 | 65 | 1017.2 |
| 20260502164151 | 73 | 156 | 1.0 | 5.0 | 0.00 | 2.84 | 0.28 | 71 | 1017.2 |
| 20260502163653 | 72 | 144 | 2.0 | 6.0 | 0.00 | 2.84 | 0.28 | 68 | 1017.1 |
| 20260502163147 | 72 | 140 | 2.0 | 8.0 | 0.00 | 2.84 | 0.28 | 69 | 1017.2 |
| 20260502162905 | 71 | 141 | 2.0 | 8.0 | 0.00 | 2.84 | 0.28 | 69 | 1017.1 |
| 20260502162139 | 71 | 139 | 2.0 | 7.0 | 0.00 | 2.84 | 0.28 | 70 | 1017.3 |
| 20260502161637 | 71 | 137 | 2.0 | 7.0 | 0.00 | 2.84 | 0.28 | 71 | 1017.3 |
| 20260502161136 | 71 | 149 | 1.0 | 5.0 | 0.00 | 2.84 | 0.28 | 70 | 1017.3 |
| 20260502160635 | 71 | 151 | 1.0 | 5.0 | 0.00 | 2.84 | 0.28 | 68 | 1017.4 |
| 20260502160135 | 71 | 142 | 1.0 | 4.0 | 0.00 | 2.84 | 0.28 | 73 | 1017.4 |
| 20260502152135 | 69 | 139 | 1.0 | 5.0 | 0.00 | 2.84 | 0.28 | 75 | 1017.1 |
| 20260502151632 | 68 | 130 | 2.0 | 7.0 | 0.00 | 2.84 | 0.28 | 76 | 1017.1 |
| 20260502151129 | 68 | 98 | 2.0 | 7.0 | 0.00 | 2.84 | 0.28 | 76 | 1017.0 |
| 20260502150629 | 67 | 152 | 2.0 | 8.0 | 0.00 | 2.84 | 0.28 | 78 | 1016.9 |
| 20260502150131 | 67 | 149 | 2.0 | 6.0 | 0.00 | 2.84 | 0.28 | 79 | 1016.9 |
| 20260502130413 | 58 | 145 | 1.0 | 3.0 | 0.00 | 2.84 | 0.28 | 94 | 1015.7 |
| 20260502123338 | 55 | 147 | 0.0 | 3.0 | 0.00 | 2.84 | 0.28 | 97 | 1015.2 |
| 20260502122325 | 55 | 140 | 0.0 | 2.0 | 0.00 | 2.84 | 0.28 | 98 | 1015.3 |
| 20260502122046 | 55 | 145 | 0.0 | 1.0 | 0.00 | 2.84 | 0.28 | 98 | 1015.0 |
| 20260502121313 | 54 | 146 | 0.0 | 1.0 | 0.00 | 2.84 | 0.28 | 98 | 1014.8 |
| 20260502121029 | 54 | 145 | 0.0 | 1.0 | 0.00 | 2.84 | 0.28 | 98 | 1014.8 |
| 20260502120522 | 54 | 145 | 0.0 | 2.0 | 0.00 | 2.84 | 0.28 | 98 | 1014.5 |
| 20260502115755 | 54 | 145 | 0.0 | 2.0 | 0.00 | 2.84 | 0.28 | 98 | 1014.6 |
| 20260502115249 | 54 | 146 | 0.0 | 1.0 | 0.00 | 2.84 | 0.28 | 98 | 1014.6 |
| 20260502114742 | 54 | 145 | 0.0 | 2.0 | 0.00 | 2.84 | 0.28 | 98 | 1014.6 |
| 20260502114237 | 54 | 156 | 0.0 | 2.0 | 0.00 | 2.84 | 0.28 | 98 | 1014.3 |
| 20260502113731 | 54 | 142 | 0.0 | 1.0 | 0.00 | 2.84 | 0.28 | 98 | 1014.4 |
| 20260502113225 | 54 | 142 | 0.0 | 2.0 | 0.00 | 2.84 | 0.28 | 98 | 1014.3 |
| 20260502112719 | 54 | 142 | 0.0 | 2.0 | 0.00 | 2.84 | 0.28 | 98 | 1014.2 |
| 20260502112213 | 54 | 152 | 0.0 | 3.0 | 0.00 | 2.84 | 0.28 | 98 | 1014.2 |
| 20260502111707 | 54 | 150 | 0.0 | 3.0 | 0.00 | 2.84 | 0.28 | 98 | 1014.1 |
| 20260502111201 | 54 | 145 | 0.0 | 3.0 | 0.00 | 2.84 | 0.28 | 98 | 1013.9 |
| 20260502110655 | 54 | 134 | 0.0 | 3.0 | 0.00 | 2.84 | 0.28 | 98 | 1014.0 |
| 20260502110149 | 54 | 153 | 0.0 | 3.0 | 0.00 | 2.84 | 0.28 | 98 | 1013.6 |
| 20260502105644 | 54 | 156 | 0.0 | 4.0 | 0.00 | 2.84 | 0.28 | 98 | 1013.7 |
| 20260502105137 | 54 | 153 | 1.0 | 4.0 | 0.00 | 2.84 | 0.28 | 98 | 1013.7 |
| 20260502104631 | 54 | 147 | 1.0 | 3.0 | 0.00 | 2.84 | 0.28 | 98 | 1013.7 |
| 20260502104126 | 54 | 135 | 1.0 | 3.0 | 0.00 | 2.84 | 0.28 | 98 | 1013.7 |
| 20260502103619 | 54 | 142 | 0.0 | 3.0 | 0.00 | 2.84 | 0.28 | 98 | 1013.7 |
| 20260502103114 | 54 | 146 | 0.0 | 3.0 | 0.00 | 2.84 | 0.28 | 98 | 1013.8 |
| 20260502102607 | 54 | 134 | 1.0 | 3.0 | 0.00 | 2.84 | 0.28 | 98 | 1013.6 |
| 20260502102324 | 54 | 147 | 0.0 | 2.0 | 0.00 | 2.84 | 0.28 | 98 | 1013.6 |
| 20260502101555 | 54 | 151 | 0.0 | 2.0 | 0.00 | 2.84 | 0.28 | 98 | 1013.5 |
| 20260502101050 | 53 | 154 | 0.0 | 3.0 | 0.00 | 2.84 | 0.28 | 98 | 1013.6 |
| 20260502100544 | 53 | 149 | 1.0 | 4.0 | 0.00 | 2.84 | 0.28 | 98 | 1013.5 |
| 20260502091530 | 53 | 161 | 2.0 | 8.0 | 0.02 | 2.85 | 0.28 | 99 | 1013.0 |
| 20260502091032 | 53 | 137 | 1.0 | 6.0 | 0.02 | 2.85 | 0.28 | 99 | 1013.0 |
| 20260502090532 | 53 | 205 | 2.0 | 7.0 | 0.02 | 2.85 | 0.28 | 99 | 1012.8 |
| 20260502071525 | 54 | 163 | 2.0 | 6.0 | 0.09 | 2.81 | 0.24 | 99 | 1013.1 |
| 20260502071022 | 54 | 132 | 1.0 | 6.0 | 0.09 | 2.79 | 0.23 | 99 | 1013.0 |
| 20260502070516 | 54 | 151 | 0.0 | 3.0 | 0.10 | 2.79 | 0.22 | 99 | 1013.3 |
| 20260502070228 | 54 | 149 | 1.0 | 3.0 | 0.10 | 2.78 | 0.21 | 99 | 1013.1 |
| 20260502065504 | 54 | 132 | 1.0 | 3.0 | 0.10 | 2.78 | 0.21 | 99 | 1012.9 |
| 20260502065222 | 54 | 144 | 0.0 | 2.0 | 0.09 | 2.77 | 0.20 | 99 | 1013.3 |
| 20260502064713 | 54 | 137 | 0.0 | 2.0 | 0.08 | 2.76 | 0.19 | 99 | 1013.4 |
| 20260502063946 | 54 | 131 | 0.0 | 2.0 | 0.08 | 2.75 | 0.18 | 99 | 1013.0 |
| 20260502063441 | 54 | 130 | 0.0 | 2.0 | 0.08 | 2.74 | 0.17 | 99 | 1013.2 |
| 20260502062935 | 54 | 134 | 1.0 | 4.0 | 0.11 | 2.74 | 0.17 | 99 | 1013.1 |
| 20260502062428 | 54 | 152 | 1.0 | 4.0 | 0.13 | 2.74 | 0.17 | 99 | 1012.6 |
| 20260502061923 | 54 | 143 | 0.0 | 5.0 | 0.14 | 2.73 | 0.16 | 99 | 1012.6 |
| 20260502061904 | 54 | 157 | 0.0 | 5.0 | 0.14 | 2.72 | 0.15 | 99 | 1012.8 |
| 20260502060911 | 54 | 133 | 0.0 | 3.0 | 0.13 | 2.70 | 0.13 | 99 | 1013.6 |
| 20260502060404 | 54 | 156 | 0.0 | 2.0 | 0.12 | 2.69 | 0.12 | 99 | 1013.7 |
| 20260502055859 | 54 | 148 | 0.0 | 3.0 | 0.11 | 2.68 | 0.11 | 99 | 1013.7 |
| 20260502055615 | 54 | 131 | 0.0 | 3.0 | 0.12 | 2.68 | 0.11 | 99 | 1013.5 |
| 20260502055112 | 54 | 134 | 1.0 | 6.0 | 0.14 | 2.68 | 0.11 | 99 | 1013.5 |
| 20260502054340 | 54 | 146 | 1.0 | 6.0 | 0.16 | 2.67 | 0.10 | 99 | 1013.4 |
| 20260502053835 | 54 | 149 | 1.0 | 5.0 | 0.17 | 2.67 | 0.10 | 99 | 1013.4 |
| 20260502053328 | 54 | 144 | 1.0 | 5.0 | 0.15 | 2.65 | 0.09 | 99 | 1013.3 |
| 20260502052822 | 54 | 130 | 1.0 | 8.0 | 0.13 | 2.63 | 0.06 | 99 | 1013.1 |
| 20260502052803 | 54 | 130 | 1.0 | 8.0 | 0.10 | 2.60 | 0.04 | 99 | 1013.6 |
| 20260502052029 | 54 | 135 | 1.0 | 4.0 | 0.09 | 2.59 | 0.02 | 99 | 1013.2 |
| 20260502051309 | 54 | 125 | 1.0 | 3.0 | 0.08 | 2.58 | 0.01 | 99 | 1013.4 |
| 20260502050810 | 54 | 144 | 1.0 | 4.0 | 0.07 | 2.57 | 0.00 | 99 | 1013.2 |
| 20260502050308 | 54 | 139 | 1.0 | 4.0 | 0.07 | 2.57 | 0.00 | 99 | 1013.4 |
| 20260502045808 | 54 | 156 | 1.0 | 5.0 | 0.08 | 2.57 | 2.57 | 99 | 1013.2 |
| 20260502045306 | 54 | 139 | 1.0 | 6.0 | 0.08 | 2.56 | 2.56 | 99 | 1013.0 |
| 20260502044805 | 54 | 132 | 1.0 | 6.0 | 0.05 | 2.53 | 2.54 | 99 | 1013.2 |
| 20260502044305 | 54 | 149 | 1.0 | 4.0 | 0.03 | 2.51 | 2.51 | 99 | 1013.2 |
| 20260502044240 | 54 | 130 | 1.0 | 5.0 | 0.02 | 2.50 | 2.50 | 99 | 1013.2 |
| 20260502043528 | 54 | 141 | 2.0 | 7.0 | 0.02 | 2.50 | 2.50 | 99 | 1012.7 |
| 20260502042804 | 55 | 140 | 1.0 | 7.0 | 0.02 | 2.50 | 2.50 | 99 | 1012.5 |
| 20260502042305 | 55 | 143 | 1.0 | 6.0 | 0.02 | 2.50 | 2.50 | 99 | 1012.4 |
| 20260502042021 | 55 | 175 | 1.0 | 6.0 | 0.02 | 2.50 | 2.50 | 99 | 1012.5 |
| 20260502041303 | 55 | 155 | 1.0 | 5.0 | 0.02 | 2.50 | 2.50 | 99 | 1012.5 |
| 20260502040804 | 55 | 158 | 1.0 | 4.0 | 0.02 | 2.50 | 2.50 | 99 | 1012.6 |
| 20260502040305 | 55 | 151 | 1.0 | 6.0 | 0.02 | 2.50 | 2.50 | 99 | 1012.7 |
| 20260502035802 | 55 | 182 | 1.0 | 6.0 | 0.01 | 2.49 | 2.49 | 99 | 1012.8 |
| 20260502035306 | 55 | 121 | 1.0 | 5.0 | 0.00 | 2.48 | 2.48 | 99 | 1012.8 |
| 20260502035025 | 55 | 142 | 1.0 | 6.0 | 0.00 | 2.48 | 2.48 | 99 | 1012.7 |
| 20260502034304 | 55 | 132 | 2.0 | 6.0 | 0.00 | 2.48 | 2.48 | 99 | 1012.5 |
| 20260502033803 | 55 | 130 | 2.0 | 6.0 | 0.00 | 2.48 | 2.48 | 99 | 1012.6 |
| 20260502033532 | 55 | 142 | 1.0 | 6.0 | 0.00 | 2.48 | 2.48 | 99 | 1012.5 |
| 20260502032804 | 55 | 157 | 1.0 | 5.0 | 0.00 | 2.48 | 2.48 | 99 | 1012.5 |
| 20260502032536 | 55 | 164 | 1.0 | 5.0 | 0.00 | 2.48 | 2.48 | 99 | 1012.7 |
| 20260502032028 | 55 | 125 | 1.0 | 6.0 | 0.00 | 2.48 | 2.48 | 99 | 1012.6 |
| 20260502031302 | 55 | 139 | 1.0 | 6.0 | 0.00 | 2.48 | 2.48 | 99 | 1012.4 |
| 20260502030802 | 55 | 167 | 1.0 | 4.0 | 0.00 | 2.48 | 2.48 | 99 | 1012.5 |
| 20260502030302 | 55 | 146 | 1.0 | 5.0 | 0.00 | 2.48 | 2.48 | 99 | 1012.5 |
| 20260502030024 | 55 | 134 | 1.0 | 5.0 | 0.00 | 2.48 | 2.48 | 99 | 1012.4 |